2018 Detroit Free Press/Chemical Bank Marathon

Detroit, MI
2018-10-21
Starts on: 2018-10-21
Where: Detroit, MI
Categories: International Half Marathon Marathon U.S. Only Half Marathon 5K Marathon Relay 1 Mile
Description: Since 1978, runners from all over the world have traveled to Detroit to take part in our marathon. It's become an event that encompasses people from all walks of life, not just elite runners. Whether you’re a seasoned marathoner, casual runner or training for your first 5K, we have a race for you.
Female 55-59 Marathon
name bib rank time pace hometown
Angie Dickey 494 1 03:40:27 08:25 Harrisburg, PA
Ellen van Wageningen 921 2 03:43:42 08:32 Windsor, Canada
Hiromi Potter 2512 3 03:45:11 08:36 Okemos, MI
Catherine Walker 346 4 03:50:09 08:47 Windsor, Canada
Nathalie Gardon 461 5 03:54:15 08:57 Novi, MI
Caroline Cook 1669 6 03:54:34 08:57 Grand Rapids, MI
Jeanne Barlage 941 7 03:58:10 09:06 Carlos, MN
Dianne Signs 165 8 04:08:54 09:30 Greenville, MI
Amy Wolf 2052 9 04:12:57 09:39 Faribault, MN
christine callaghan 1875 10 04:13:13 09:40 Toledo, OH
Gail McMurphy 1941 11 04:16:33 09:48 Petrolia, Canada
Carla Palffy 207 12 04:17:10 09:49 Grosse Pointe, MI
Lynn Slater 1611 13 04:26:45 10:11 Atlanta, GA
Christine Geerer 247 14 04:28:20 10:15 Harrison Township, MI
Sandra Popovich 462 15 04:28:47 10:16 Tonawanda, NY
Ann Anstett 2385 16 04:29:50 10:18 Sarnia, Canada
Debbie Proffer 5654 17 04:36:48 10:34 Auburn Hills, MI
Deborah Bacchus 2549 18 04:38:28 10:38 Chicago, IL
Michelle Sheckler 2454 19 04:38:59 10:39 Cedarville, MI
Amy Scharpf 1860 20 04:41:18 10:44 Pittsburgh, PA
Crystal Reed 1434 21 04:45:51 10:55 Royal Oak, MI
Janet Holland 1673 22 04:46:47 10:57 Ochelata, OK
Sabine Blaxton 192 23 04:51:04 11:07 Okemos, MI
Guadalupe Mora 400 24 04:53:28 11:12 Rochester, MI
Susan Warwick 2530 25 04:54:27 11:14 Wilmington, NC
Margaret Shooshanian 750 26 04:54:57 11:15 Fenton, MI
Tammy Breuker 1734 27 04:57:33 11:21 Grand Rapids, MI
Cheryl Strange-Laetsch 611 28 04:59:10 11:25 Grass Lake, MI
Marcy Feldman 1401 29 04:59:19 11:25 Farmington, MI
Julie Palombo 2651 30 04:59:48 11:27 Douglasville, GA
leslie sansovich 5779 31 04:59:52 11:27 Romulus, MI
Marlene Jacks 838 32 05:12:38 11:56 Glenwood, IL
Sandra Williams 5791 33 05:18:10 12:09 Detroit, MI
Monica Danna 1478 34 05:20:17 12:13 Montvale, NJ
Ann Wood 6361 35 05:20:27 12:14 Monroe, MI
Michelle Miller 2296 36 05:20:29 12:14 Appleton, WI
Sonda Raby 1114 37 05:20:50 12:15 Napoleon, MI
cheryl clark 5877 38 05:24:00 12:22 Temperance, MI
Michelle Kreft 1922 39 05:25:33 12:26 Lake Odessa, MI
Lynn Hauptli 148 40 05:27:16 12:29 Kalamazoo, MI
Denise Brembeck 5690 41 05:29:39 12:35 Eaton Rapids, MI
Loretta Green 1564 42 05:35:49 12:49 Mississauga, Canada
Imelda Naidoo 6209 43 05:39:10 12:57 LaSalle, Canada
Jodi Miller 1598 44 05:41:18 13:02 Ashland, VA
Jane Hall 5006 45 05:42:12 13:04 Metamora, MI
Patricia Nicholson-volante 6218 46 05:52:37 13:27 Howell, MI
Melinda Beaker 5182 47 05:53:09 13:29 Trenton, MI
Ann O'Connell 1664 48 05:55:26 13:34 Wyckoff, NJ
Dawn Soave 136 49 06:07:22 14:01 Livonia, MI
Patricia McQuade 41064 50 06:12:58 14:14 Macomb, MI
Kimberly Collar 5601 51 06:28:16 14:49 Westfield, IN
Pamela Smith 41065 52 06:28:35 14:50 Southfield, MI
Tammy Moorey 41084 53 06:30:10 14:53 Wixom, MI
Mary Cody 5123 54 06:31:33 14:57 Canton, MI
Debbie Didone 5291 55 06:32:24 14:58 Harrow, Canada
lois davidson 1733 56 06:35:20 15:05 Novi, MI
Lisa Mitcham-Bladecki 5012 57 06:35:20 15:05 Livonia, MI
Maria Roszczenko 357 58 07:08:51 16:22 Canton, MI

For results questions or inquiries please email results@enmotive.com